SCP
0 -0 0 -0 0 0 0 0 -0 -0 0 -0 -0 0 0 -0 -0 0 -0 0 0 -0 -0 -0 0 0 0 0 0 0 0 0 0 0 0 -0 -0 0 0 0 0 -0 -0 0 0 0 0 0 0
-0 0 0 0 0 0 -0 -0 -0 -0 -0 -0 0 0 0 0 0 -0 0 0 0 -0 -0 -0 0 0 0 0 0 -0 0 0 0 0 0 -0 -0 0 0 0 0 -0 -0 -0 0 0 0 0 0
-0 -0 0 0 0 0 -0 -0 -0 0 0 0 0 0 0 0 -0 -0 0 0 0 -0 -0 -0 0 0 0 0 0 0 0 0 0 0 0 0 0 -0 0 0 0 0 0 0 0 0 0 0 0
0 -0 -0 0 0 -0 -0 -0 -0 -0 -0 -0 -0 -0 0 0 0 0 0 -0 -0 -0 -0 0 -0 0 0 0 0 -0 -0 0 0 0 -0 0 0 -0 0 0 0 0 0 0 0 0 0 0 0
-0 -0 -0 -0 0 0 0 0 -0 -0 -0 -0 -0 -0 -0 -0 -0 -0 -0 -0 -0 -0 -0 -0 -0 -0 -0 -0 -0 -0 -0 -0 0 0 0 0 0 0 0 0 0 0 0 0 0 0 0 0 0
-0 -0 0 0 0 0 0 -0 -0 -0 -0 -0 -0 -0 -0 -0 -0 -0 -0 -0 -0 0 -0 0 -0 -0 -0 -0 0 0 -0 -0 0 -0 -0 0 0 0 0 0 0 0 0 0 0 0 0 0 0
-0 0 0 0 -0 0 0 -0 -0 -0 -0 -0 -0 -0 0 -0 -0 -0 -0 -0 -0 -0 0 -0 -0 0 -0 0 0 0 0 -0 -0 0 -0 0 0 0 0 0 0 0 0 0 0 0 0 0 0
-0 0 0 0 -0 0 -0 0 -0 -0 0 -0 -0 -0 -0 -0 -0 -0 -0 0 0 0 -0 -0 -0 -0 -0 -0 0 0 0 -0 0 0 -0 0 0 0 0 0 0 0 0 0 0 0 0 0 0
-0 0 0 0 -0 -0 -0 0 0 -0 -0 -0 0 -0 -0 -0 -0 -0 -0 -0 -0 -0 -0 -0 -0 -0 -0 -0 -0 0 0 -0 -0 0 0 0 0 0 0 0 0 0 0 0 0 0 0 1 1
0 0 -0 -0 0 0 0 -0 0 -0 -0 -0 -0 -0 -0 -0 -0 -0 -0 -0 -0 -0 -0 -0 -0 -0 -0 -0 -0 -0 -0 -0 0 0 0 0 0 0 0 0 0 1 1 1 1 1 1 1 1
0 0 -0 -0 0 0 -0 -0 0 -0 -0 -0 -0 -0 -0 -0 -0 -0 -0 -0 -0 0 -0 -0 -0 -0 -0 -0 -0 -0 -0 -0 0 0 0 0 0 0 0 0 0 0 1 1 1 1 1 1 1
0 0 0 -0 0 -0 -0 -0 0 0 -0 -0 -0 -0 -0 -0 -0 -0 -0 -0 -0 -0 0 0 -0 -0 -0 -0 -0 -0 -0 -0 0 0 0 0 0 0 0 0 0 0 0 1 1 1 1 1 1
0 0 0 -0 -0 0 0 0 0 0 0 -0 -0 -0 -0 -0 -0 -0 -0 0 -0 0 -0 -0 -0 -0 -0 -0 -0 -0 -0 0 0 0 0 0 0 0 0 0 0 0 0 0 0 0 1 1 0
0 -0 0 0 -0 -0 -0 0 0 0 -0 -0 -0 -0 -0 -0 -0 -0 -0 -0 -0 0 -0 -0 -0 -0 -0 -0 -0 -0 -0 -0 -0 0 0 0 0 0 0 0 0 0 0 0 0 0 0 0 0
0 -0 0 0 -0 0 -0 -0 0 0 -0 -0 -0 -0 -0 -0 -0 -0 -0 -0 -0 -0 -0 -0 0 0 0 0 -0 -0 -0 0 0 0 0 0 0 0 0 0 0 0 0 1 0 0 0 0 0
0 0 0 -0 0 -0 -0 0 0 0 -0 -0 0 -0 -0 -0 -0 -0 -0 -0 -0 0 -0 0 0 0 -0 -0 -0 0 -0 -0 0 0 0 0 0 0 0 0 0 0 0 0 1 1 0 0 0
0 0 0 -0 -0 0 0 0 0 0 0 0 0 0 -0 -0 -0 -0 -0 -0 0 -0 -0 -0 -0 0 -0 -0 -0 -0 -0 -0 0 0 0 0 0 0 0 0 0 0 0 0 1 0 0 0 0
0 0 0 0 0 0 0 0 0 0 0 0 0 0 -0 -0 -0 -0 -0 -0 0 -0 -0 -0 -0 -0 -0 0 -0 -0 0 -0 0 0 0 0 0 -0 0 0 0 0 0 0 1 0 0 0 0
0 0 0 0 -0 0 0 0 0 0 0 -0 -0 0 -0 -0 -0 -0 -0 -0 -0 -0 0 -0 -0 -0 -0 0 0 0 -0 -0 0 0 0 0 0 0 0 0 0 0 0 0 0 1 1 0 0
0 0 0 0 -0 -0 0 0 0 0 0 -0 0 0 -0 0 -0 -0 -0 -0 -0 -0 -0 0 -0 -0 -0 -0 0 0 0 -0 -0 0 0 0 0 0 0 0 0 0 0 0 0 0 1 0 0
0 0 0 0 0 0 -0 0 0 0 0 0 0 0 0 -0 -0 -0 -0 -0 0 -0 -0 0 0 0 0 -0 0 0 0 0 -0 -0 0 0 0 0 0 0 0 0 0 0 0 0 0 0 0
0 0 0 -0 -0 -0 0 -0 0 0 0 0 0 0 0 -0 -0 -0 -0 -0 -0 0 0 -0 0 0 -0 -0 -0 0 0 0 -0 -0 -0 -0 -0 0 0 -0 -0 0 0 0 0 0 0 0 0
0 0 0 -0 0 0 -0 -0 0 0 0 -0 -0 0 0 0 -0 -0 -0 -0 -0 0 0 0 0 0 -0 -0 -0 0 0 0 0 -0 -0 -0 -0 -0 -0 -0 0 0 0 0 0 0 0 0 0
0 0 0 0 0 0 -0 -0 0 0 0 -0 0 0 0 0 0 0 0 -0 0 0 0 0 0 0 -0 -0 -0 0 0 -0 -0 -0 -0 -0 -0 -0 0 0 0 0 0 0 0 0 0 0 0
0 0 0 0 0 -0 -0 -0 0 0 -0 -0 -0 0 0 0 0 0 0 0 0 0 0 0 0 0 0 -0 -0 -0 -0 -0 0 -0 -0 0 0 -0 0 0 0 0 0 0 0 0 0 0 0
-0 -0 -0 -0 0 -0 0 0 0 -0 -0 -0 -0 0 0 0 0 0 0 0 0 0 0 0 0 0 0 0 -0 -0 -0 -0 -0 -0 0 -0 -0 -0 -0 0 0 0 -0 0 0 0 0 0 0
0 0 0 0 0 -0 -0 0 0 0 0 -0 0 -0 0 0 0 0 0 0 0 0 0 0 0 0 0 0 -0 -0 -0 -0 0 -0 0 -0 -0 -0 0 -0 0 0 0 0 0 0 0 0 0
0 0 0 0 0 -0 -0 -0 -0 0 0 -0 0 0 0 0 0 0 0 0 0 0 0 0 0 0 0 0 0 0 -0 -0 -0 -0 -0 -0 0 -0 0 0 -0 0 0 0 0 0 0 0 0
0 0 0 0 0 -0 -0 -0 0 -0 -0 0 0 0 0 0 0 0 0 0 0 0 0 0 0 0 0 0 0 0 0 -0 -0 0 0 -0 0 0 0 0 0 0 0 0 0 0 0 0 0
0 0 0 0 0 0 -0 -0 -0 -0 -0 -0 0 0 0 0 0 0 0 0 0 0 1 0 0 0 0 0 0 0 0 0 0 0 0 0 0 0 0 0 0 0 0 0 0 0 0 0 0
Wind_Speed_500mb
7 15 14 16 4 7 6 15 32 34 13 11 53 17 22 14 7 10 52 44 48 47 44 41 38 38 37 37 39 40 43 43 44 45 46 45 45 43 39 40 39 41 41 40 46 45 42 41 42
9 9 29 10 6 6 8 24 35 25 33 63 46 44 28 12 41 52 56 51 49 48 45 42 39 38 38 38 38 40 43 43 44 44 42 44 42 39 39 36 38 37 42 40 46 44 45 43 35
9 15 10 3 4 3 10 28 35 42 28 34 19 32 15 24 62 68 59 57 52 49 46 41 38 37 37 38 38 38 42 41 42 44 42 40 39 37 35 35 35 36 39 40 40 37 39 39 43
10 9 12 2 9 6 11 26 50 48 54 63 48 26 40 38 47 68 61 54 52 48 44 39 35 36 34 37 38 38 40 41 44 43 42 40 35 31 31 34 33 34 38 38 40 39 38 35 35
8 2 7 4 10 10 13 34 50 30 27 46 66 33 24 48 62 60 61 49 47 46 42 39 33 33 33 34 37 38 40 40 41 41 37 32 33 33 32 33 31 34 36 38 42 38 39 36 35
2 4 7 6 10 11 9 24 42 46 47 56 69 47 23 71 62 57 53 43 37 38 37 34 31 30 32 33 35 36 37 38 39 37 35 36 36 35 35 37 36 37 37 37 44 43 38 35 31
4 6 4 18 8 11 4 40 40 52 62 39 56 28 52 69 58 55 42 36 38 31 33 35 33 31 32 34 34 34 35 37 38 38 37 37 37 37 39 39 41 40 39 39 48 46 38 31 23
7 7 9 10 4 8 7 13 45 70 26 58 80 21 43 67 63 55 49 45 36 31 29 30 32 32 34 36 36 35 34 36 38 37 38 40 40 43 46 46 46 47 45 48 48 43 38 32 26
11 8 10 19 23 8 9 9 23 39 67 48 11 65 69 68 61 55 51 45 41 32 31 32 30 31 33 35 38 35 34 38 38 37 37 38 44 42 42 43 46 48 47 44 40 37 34 30 22
13 8 27 20 26 13 31 33 42 45 37 44 65 58 74 78 66 59 50 48 43 39 39 30 31 34 32 36 39 36 37 41 41 41 42 42 43 38 35 32 31 27 27 28 25 23 25 26 22
10 5 11 27 42 28 11 34 28 48 25 69 79 74 85 73 63 53 52 42 42 37 35 31 34 33 34 38 41 42 44 38 35 36 43 44 44 36 24 20 20 24 24 19 25 32 24 15 20
10 13 8 21 24 23 9 28 22 19 47 74 87 89 83 76 64 56 49 56 45 40 37 33 35 34 38 39 40 34 31 34 33 35 35 35 33 26 24 30 26 23 27 24 31 30 34 29 15
9 6 21 19 14 11 14 10 20 39 41 75 80 80 78 71 61 58 49 46 45 45 38 35 35 29 32 28 38 35 33 35 35 34 33 26 17 16 17 18 21 28 26 21 13 24 21 24 20
20 29 18 17 22 15 16 10 9 36 65 74 77 69 67 60 64 59 54 55 57 44 37 39 38 31 31 32 27 37 31 34 38 35 26 18 21 16 15 19 31 22 20 21 15 13 17 15 14
18 18 12 18 17 7 21 10 21 45 58 59 65 61 62 55 69 63 57 52 50 39 35 41 39 32 27 26 33 34 32 34 30 27 24 21 18 20 9 16 20 12 21 15 16 9 8 18 20
6 6 7 4 12 2 9 6 12 34 50 46 56 61 61 64 65 63 56 50 48 40 36 41 41 36 33 32 35 30 33 30 34 25 22 23 23 16 31 28 26 20 17 11 8 5 8 12 22
6 3 7 1 2 8 8 9 4 34 27 48 50 50 74 72 73 68 56 44 42 33 38 35 46 42 35 38 34 33 27 32 33 25 26 24 16 21 21 21 21 17 15 12 15 12 9 11 9
9 8 15 9 8 2 6 3 7 23 29 47 55 40 74 69 79 66 51 47 41 37 39 34 43 45 37 41 34 33 28 27 23 24 24 22 26 22 19 17 17 12 14 15 16 9 7 9 1
9 15 20 9 7 1 6 5 8 10 23 36 53 39 66 72 69 64 55 51 45 44 47 39 54 44 46 37 28 34 36 27 22 21 21 27 27 18 33 21 18 17 19 15 11 13 15 13 14
19 19 15 12 4 8 6 10 9 5 9 9 11 53 65 67 77 72 64 55 49 45 39 49 41 44 51 37 34 35 39 31 23 20 17 22 25 16 22 19 23 22 15 14 9 15 16 10 11
5 17 25 2 6 9 7 8 9 5 9 11 15 14 62 83 84 76 68 59 53 46 45 43 44 45 44 45 40 36 38 37 35 28 18 13 23 20 19 18 28 18 17 12 12 16 12 8 7
7 11 28 30 18 7 3 5 8 23 20 9 25 18 30 72 83 78 72 64 56 47 47 42 37 41 40 49 47 40 38 38 42 29 20 18 21 26 20 20 20 18 19 16 15 13 13 13 10
11 16 15 32 12 5 11 3 9 16 26 30 29 37 24 66 88 82 77 63 55 46 50 47 39 36 39 47 46 50 43 34 31 28 21 25 23 28 18 17 17 19 19 18 18 10 8 10 18
41 31 26 5 2 5 12 8 8 14 44 30 21 37 29 69 88 84 74 66 56 54 49 46 45 39 44 40 49 52 44 37 35 31 30 28 28 30 22 16 21 20 22 24 22 11 6 5 9
27 19 5 4 4 6 11 6 11 14 11 34 37 47 49 56 76 86 77 74 66 60 51 43 46 46 45 43 49 45 46 38 34 37 37 34 30 30 30 24 21 16 27 20 23 17 6 7 3
15 11 12 10 7 3 3 8 10 6 39 73 75 64 62 59 74 82 80 73 72 66 53 48 46 46 43 43 42 46 41 35 31 36 34 27 23 27 33 29 23 19 26 28 20 22 17 13 12
11 5 17 14 5 6 5 14 19 2 11 27 44 65 72 68 63 73 79 78 73 69 62 53 47 46 47 44 41 40 38 36 32 30 37 30 24 27 29 29 27 22 22 30 27 20 19 20 14
18 12 8 3 12 8 8 1 18 21 5 14 29 52 71 75 64 58 76 80 74 69 64 55 51 45 48 50 47 47 42 36 34 35 40 30 26 24 30 26 22 26 27 28 31 27 21 22 19
1 3 6 7 9 9 9 12 24 36 22 30 44 59 69 81 68 71 68 75 76 71 68 60 61 52 51 54 53 51 47 38 35 30 36 31 30 27 25 24 20 18 26 29 28 19 22 25 20
11 16 12 9 14 4 6 10 12 15 22 29 24 41 65 73 65 57 72 81 76 78 73 68 69 56 49 51 53 49 43 38 37 32 31 32 28 30 31 27 26 22 30 27 22 23 23 28 16
Wind_Direction_500mb
70 25 359 44 358 27 16 102 107 95 86 141 156 142 141 95 131 150 143 151 145 137 133 130 125 121 118 118 115 117 118 118 118 118 117 118 116 113 113 111 111 111 113 111 116 116 108 113 116
119 30 52 41 27 38 67 113 85 99 113 106 84 93 62 85 105 134 142 152 143 136 134 132 129 122 118 120 119 120 119 118 118 120 120 117 115 114 115 114 114 110 113 114 119 115 107 113 100
153 107 80 109 284 357 95 111 115 125 115 116 104 76 79 106 126 138 145 146 142 136 135 132 129 125 121 122 124 121 121 120 125 125 119 117 117 117 112 107 108 110 115 118 122 119 113 109 102
131 119 64 74 265 29 352 122 112 103 92 97 103 76 104 125 137 138 142 144 142 139 139 135 134 128 125 123 127 123 122 121 120 122 121 121 116 111 109 110 111 113 116 119 125 123 110 106 109
183 153 109 6 323 303 339 116 115 106 74 107 111 120 98 134 135 135 138 138 141 140 139 138 137 135 134 130 131 129 127 126 123 120 121 120 116 112 108 106 107 108 113 122 131 125 113 110 105
194 167 93 115 260 315 297 146 116 107 108 112 110 114 114 143 141 141 142 141 141 142 143 142 143 143 140 137 132 132 130 130 125 120 116 115 111 106 105 104 104 105 110 120 128 126 117 112 104
252 84 117 149 309 331 288 120 128 118 121 131 126 111 138 148 144 143 147 153 142 143 144 142 142 145 145 141 136 134 135 132 126 121 116 109 104 102 101 103 103 105 110 115 125 126 125 124 116
202 82 111 190 189 307 141 128 136 132 132 138 132 143 146 150 148 144 132 129 131 142 141 137 138 142 145 143 142 135 132 131 129 124 118 112 105 105 106 104 102 105 110 119 121 121 124 128 122
228 62 118 185 176 218 266 128 106 132 131 135 152 142 147 153 151 139 133 129 126 129 139 133 133 138 141 145 142 138 134 135 128 125 120 109 108 106 107 105 104 105 107 118 125 125 124 134 135
191 127 187 208 192 210 175 130 124 135 141 122 127 141 150 153 151 150 148 142 138 131 126 125 124 135 142 141 140 138 132 133 129 125 121 117 112 115 107 101 99 102 113 117 121 123 124 126 134
189 203 149 187 234 219 225 139 142 159 158 148 147 156 157 160 160 155 146 155 143 139 139 131 119 133 142 139 139 137 134 132 129 122 126 125 126 116 108 108 108 103 103 97 110 105 95 128 143
125 47 71 149 202 183 111 129 137 169 161 164 159 162 163 164 161 155 149 155 147 145 144 137 130 133 140 138 133 145 138 144 134 133 134 135 139 129 119 111 107 108 112 108 104 88 74 81 135
79 71 85 83 127 148 103 61 133 144 155 164 162 162 164 164 163 161 160 154 155 157 152 144 150 150 144 141 144 141 141 136 129 131 140 142 152 138 138 117 109 110 107 99 81 92 94 77 93
155 115 113 70 53 56 109 147 101 165 157 159 163 166 164 161 171 165 163 160 156 154 149 155 161 155 143 141 135 149 137 150 139 139 155 161 141 147 123 113 107 104 109 110 104 90 71 110 102
126 102 84 24 9 77 100 289 161 147 165 162 170 166 158 169 168 170 165 164 162 157 155 164 159 159 161 171 175 157 151 152 150 156 160 168 139 132 129 145 132 112 126 131 115 139 96 109 116
44 106 116 37 6 269 150 171 146 170 173 167 161 167 169 175 168 167 166 160 161 159 155 171 165 159 152 156 164 175 165 163 155 154 159 160 139 137 142 142 139 116 107 104 119 141 135 104 112
33 350 19 219 77 320 64 153 139 186 216 160 169 154 158 164 165 166 162 163 156 152 150 161 178 165 165 151 153 163 154 165 170 169 155 166 161 160 160 149 117 82 85 89 81 77 145 106 104
154 153 229 210 169 12 18 98 83 167 168 169 180 173 152 158 169 168 167 160 156 155 149 143 166 171 169 173 170 168 170 168 173 176 181 174 180 169 185 148 103 109 143 118 98 65 158 172 206
219 213 190 144 222 202 141 285 155 60 201 183 186 166 156 160 171 172 167 165 165 166 164 158 162 173 172 165 176 185 175 161 157 158 169 184 181 167 176 148 139 145 164 146 124 79 137 119 28
250 149 83 52 210 328 161 239 286 155 244 181 160 165 160 161 168 171 171 174 178 178 176 166 170 177 178 172 162 163 180 173 175 164 161 173 188 175 154 152 150 159 169 130 110 119 113 78 93
55 141 127 251 196 1 86 301 267 201 222 256 246 173 176 168 169 174 176 180 181 184 184 184 177 181 198 189 185 172 175 177 187 180 191 185 179 181 174 162 176 175 180 139 127 99 89 80 110
152 215 145 175 168 222 168 239 207 249 261 246 248 231 199 170 177 178 182 183 186 191 195 191 192 195 200 196 199 193 187 181 183 188 197 191 187 182 199 191 187 177 164 162 162 114 74 86 98
163 69 143 155 178 140 211 236 254 199 244 249 232 229 221 180 180 183 187 189 189 190 194 194 198 200 194 189 200 198 195 192 198 197 186 192 185 185 191 215 211 202 196 182 194 142 86 76 71
137 92 49 56 94 237 196 235 235 185 214 226 221 232 233 184 183 189 190 189 187 190 193 198 196 194 191 189 198 202 202 198 202 209 202 200 205 204 208 230 218 212 214 206 213 191 140 77 101
114 99 72 320 249 231 173 213 253 230 202 218 224 204 210 186 184 188 189 190 189 189 190 198 195 196 193 195 191 203 193 198 202 206 208 211 215 215 212 218 217 227 214 218 219 221 224 202 138
186 156 145 211 197 98 77 245 258 153 228 216 221 198 199 183 174 187 191 194 193 191 192 198 200 197 195 196 197 198 201 199 201 209 212 212 214 214 211 223 229 235 231 232 236 232 234 233 220
232 199 153 106 20 104 210 304 292 11 355 183 190 175 186 190 183 186 191 194 194 200 197 202 202 201 199 199 197 197 200 211 220 210 207 207 213 217 209 218 227 236 237 227 237 234 229 227 225
149 184 109 21 149 159 147 236 263 297 108 150 163 177 180 192 195 192 196 196 201 209 205 209 209 202 199 197 200 198 206 205 199 199 204 214 221 219 214 219 226 244 241 224 229 233 244 231 217
329 298 71 131 145 151 142 239 225 228 191 168 170 174 180 188 200 203 208 203 204 212 210 210 211 205 200 198 201 202 200 203 203 208 206 212 221 212 213 213 228 235 213 217 226 230 238 232 233
177 189 145 131 273 187 177 260 177 226 148 152 148 170 177 192 203 214 204 207 204 204 213 214 213 204 202 202 200 201 202 208 211 212 215 222 224 229 230 228 239 239 216 228 234 251 238 235 231
Wind_Speed_850mb
7 15 14 16 4 7 6 15 32 34 13 11 53 17 22 14 7 10 52 44 48 47 44 41 38 38 37 37 39 40 43 43 44 45 46 45 45 43 39 40 39 41 41 40 46 45 42 41 42
9 9 29 10 6 6 8 24 35 25 33 63 46 44 28 12 41 52 56 51 49 48 45 42 39 38 38 38 38 40 43 43 44 44 42 44 42 39 39 36 38 37 42 40 46 44 45 43 35
9 15 10 3 4 3 10 28 35 42 28 34 19 32 15 24 62 68 59 57 52 49 46 41 38 37 37 38 38 38 42 41 42 44 42 40 39 37 35 35 35 36 39 40 40 37 39 39 43
10 9 12 2 9 6 11 26 50 48 54 63 48 26 40 38 47 68 61 54 52 48 44 39 35 36 34 37 38 38 40 41 44 43 42 40 35 31 31 34 33 34 38 38 40 39 38 35 35
8 2 7 4 10 10 13 34 50 30 27 46 66 33 24 48 62 60 61 49 47 46 42 39 33 33 33 34 37 38 40 40 41 41 37 32 33 33 32 33 31 34 36 38 42 38 39 36 35
2 4 7 6 10 11 9 24 42 46 47 56 69 47 23 71 62 57 53 43 37 38 37 34 31 30 32 33 35 36 37 38 39 37 35 36 36 35 35 37 36 37 37 37 44 43 38 35 31
4 6 4 18 8 11 4 40 40 52 62 39 56 28 52 69 58 55 42 36 38 31 33 35 33 31 32 34 34 34 35 37 38 38 37 37 37 37 39 39 41 40 39 39 48 46 38 31 23
7 7 9 10 4 8 7 13 45 70 26 58 80 21 43 67 63 55 49 45 36 31 29 30 32 32 34 36 36 35 34 36 38 37 38 40 40 43 46 46 46 47 45 48 48 43 38 32 26
11 8 10 19 23 8 9 9 23 39 67 48 11 65 69 68 61 55 51 45 41 32 31 32 30 31 33 35 38 35 34 38 38 37 37 38 44 42 42 43 46 48 47 44 40 37 34 30 22
13 8 27 20 26 13 31 33 42 45 37 44 65 58 74 78 66 59 50 48 43 39 39 30 31 34 32 36 39 36 37 41 41 41 42 42 43 38 35 32 31 27 27 28 25 23 25 26 22
10 5 11 27 42 28 11 34 28 48 25 69 79 74 85 73 63 53 52 42 42 37 35 31 34 33 34 38 41 42 44 38 35 36 43 44 44 36 24 20 20 24 24 19 25 32 24 15 20
10 13 8 21 24 23 9 28 22 19 47 74 87 89 83 76 64 56 49 56 45 40 37 33 35 34 38 39 40 34 31 34 33 35 35 35 33 26 24 30 26 23 27 24 31 30 34 29 15
9 6 21 19 14 11 14 10 20 39 41 75 80 80 78 71 61 58 49 46 45 45 38 35 35 29 32 28 38 35 33 35 35 34 33 26 17 16 17 18 21 28 26 21 13 24 21 24 20
20 29 18 17 22 15 16 10 9 36 65 74 77 69 67 60 64 59 54 55 57 44 37 39 38 31 31 32 27 37 31 34 38 35 26 18 21 16 15 19 31 22 20 21 15 13 17 15 14
18 18 12 18 17 7 21 10 21 45 58 59 65 61 62 55 69 63 57 52 50 39 35 41 39 32 27 26 33 34 32 34 30 27 24 21 18 20 9 16 20 12 21 15 16 9 8 18 20
6 6 7 4 12 2 9 6 12 34 50 46 56 61 61 64 65 63 56 50 48 40 36 41 41 36 33 32 35 30 33 30 34 25 22 23 23 16 31 28 26 20 17 11 8 5 8 12 22
6 3 7 1 2 8 8 9 4 34 27 48 50 50 74 72 73 68 56 44 42 33 38 35 46 42 35 38 34 33 27 32 33 25 26 24 16 21 21 21 21 17 15 12 15 12 9 11 9
9 8 15 9 8 2 6 3 7 23 29 47 55 40 74 69 79 66 51 47 41 37 39 34 43 45 37 41 34 33 28 27 23 24 24 22 26 22 19 17 17 12 14 15 16 9 7 9 1
9 15 20 9 7 1 6 5 8 10 23 36 53 39 66 72 69 64 55 51 45 44 47 39 54 44 46 37 28 34 36 27 22 21 21 27 27 18 33 21 18 17 19 15 11 13 15 13 14
19 19 15 12 4 8 6 10 9 5 9 9 11 53 65 67 77 72 64 55 49 45 39 49 41 44 51 37 34 35 39 31 23 20 17 22 25 16 22 19 23 22 15 14 9 15 16 10 11
5 17 25 2 6 9 7 8 9 5 9 11 15 14 62 83 84 76 68 59 53 46 45 43 44 45 44 45 40 36 38 37 35 28 18 13 23 20 19 18 28 18 17 12 12 16 12 8 7
7 11 28 30 18 7 3 5 8 23 20 9 25 18 30 72 83 78 72 64 56 47 47 42 37 41 40 49 47 40 38 38 42 29 20 18 21 26 20 20 20 18 19 16 15 13 13 13 10
11 16 15 32 12 5 11 3 9 16 26 30 29 37 24 66 88 82 77 63 55 46 50 47 39 36 39 47 46 50 43 34 31 28 21 25 23 28 18 17 17 19 19 18 18 10 8 10 18
41 31 26 5 2 5 12 8 8 14 44 30 21 37 29 69 88 84 74 66 56 54 49 46 45 39 44 40 49 52 44 37 35 31 30 28 28 30 22 16 21 20 22 24 22 11 6 5 9
27 19 5 4 4 6 11 6 11 14 11 34 37 47 49 56 76 86 77 74 66 60 51 43 46 46 45 43 49 45 46 38 34 37 37 34 30 30 30 24 21 16 27 20 23 17 6 7 3
15 11 12 10 7 3 3 8 10 6 39 73 75 64 62 59 74 82 80 73 72 66 53 48 46 46 43 43 42 46 41 35 31 36 34 27 23 27 33 29 23 19 26 28 20 22 17 13 12
11 5 17 14 5 6 5 14 19 2 11 27 44 65 72 68 63 73 79 78 73 69 62 53 47 46 47 44 41 40 38 36 32 30 37 30 24 27 29 29 27 22 22 30 27 20 19 20 14
18 12 8 3 12 8 8 1 18 21 5 14 29 52 71 75 64 58 76 80 74 69 64 55 51 45 48 50 47 47 42 36 34 35 40 30 26 24 30 26 22 26 27 28 31 27 21 22 19
1 3 6 7 9 9 9 12 24 36 22 30 44 59 69 81 68 71 68 75 76 71 68 60 61 52 51 54 53 51 47 38 35 30 36 31 30 27 25 24 20 18 26 29 28 19 22 25 20
11 16 12 9 14 4 6 10 12 15 22 29 24 41 65 73 65 57 72 81 76 78 73 68 69 56 49 51 53 49 43 38 37 32 31 32 28 30 31 27 26 22 30 27 22 23 23 28 16
Wind_Direction_850mb
70 25 359 44 358 27 16 102 107 95 86 141 156 142 141 95 131 150 143 151 145 137 133 130 125 121 118 118 115 117 118 118 118 118 117 118 116 113 113 111 111 111 113 111 116 116 108 113 116
119 30 52 41 27 38 67 113 85 99 113 106 84 93 62 85 105 134 142 152 143 136 134 132 129 122 118 120 119 120 119 118 118 120 120 117 115 114 115 114 114 110 113 114 119 115 107 113 100
153 107 80 109 284 357 95 111 115 125 115 116 104 76 79 106 126 138 145 146 142 136 135 132 129 125 121 122 124 121 121 120 125 125 119 117 117 117 112 107 108 110 115 118 122 119 113 109 102
131 119 64 74 265 29 352 122 112 103 92 97 103 76 104 125 137 138 142 144 142 139 139 135 134 128 125 123 127 123 122 121 120 122 121 121 116 111 109 110 111 113 116 119 125 123 110 106 109
183 153 109 6 323 303 339 116 115 106 74 107 111 120 98 134 135 135 138 138 141 140 139 138 137 135 134 130 131 129 127 126 123 120 121 120 116 112 108 106 107 108 113 122 131 125 113 110 105
194 167 93 115 260 315 297 146 116 107 108 112 110 114 114 143 141 141 142 141 141 142 143 142 143 143 140 137 132 132 130 130 125 120 116 115 111 106 105 104 104 105 110 120 128 126 117 112 104
252 84 117 149 309 331 288 120 128 118 121 131 126 111 138 148 144 143 147 153 142 143 144 142 142 145 145 141 136 134 135 132 126 121 116 109 104 102 101 103 103 105 110 115 125 126 125 124 116
202 82 111 190 189 307 141 128 136 132 132 138 132 143 146 150 148 144 132 129 131 142 141 137 138 142 145 143 142 135 132 131 129 124 118 112 105 105 106 104 102 105 110 119 121 121 124 128 122
228 62 118 185 176 218 266 128 106 132 131 135 152 142 147 153 151 139 133 129 126 129 139 133 133 138 141 145 142 138 134 135 128 125 120 109 108 106 107 105 104 105 107 118 125 125 124 134 135
191 127 187 208 192 210 175 130 124 135 141 122 127 141 150 153 151 150 148 142 138 131 126 125 124 135 142 141 140 138 132 133 129 125 121 117 112 115 107 101 99 102 113 117 121 123 124 126 134
189 203 149 187 234 219 225 139 142 159 158 148 147 156 157 160 160 155 146 155 143 139 139 131 119 133 142 139 139 137 134 132 129 122 126 125 126 116 108 108 108 103 103 97 110 105 95 128 143
125 47 71 149 202 183 111 129 137 169 161 164 159 162 163 164 161 155 149 155 147 145 144 137 130 133 140 138 133 145 138 144 134 133 134 135 139 129 119 111 107 108 112 108 104 88 74 81 135
79 71 85 83 127 148 103 61 133 144 155 164 162 162 164 164 163 161 160 154 155 157 152 144 150 150 144 141 144 141 141 136 129 131 140 142 152 138 138 117 109 110 107 99 81 92 94 77 93
155 115 113 70 53 56 109 147 101 165 157 159 163 166 164 161 171 165 163 160 156 154 149 155 161 155 143 141 135 149 137 150 139 139 155 161 141 147 123 113 107 104 109 110 104 90 71 110 102
126 102 84 24 9 77 100 289 161 147 165 162 170 166 158 169 168 170 165 164 162 157 155 164 159 159 161 171 175 157 151 152 150 156 160 168 139 132 129 145 132 112 126 131 115 139 96 109 116
44 106 116 37 6 269 150 171 146 170 173 167 161 167 169 175 168 167 166 160 161 159 155 171 165 159 152 156 164 175 165 163 155 154 159 160 139 137 142 142 139 116 107 104 119 141 135 104 112
33 350 19 219 77 320 64 153 139 186 216 160 169 154 158 164 165 166 162 163 156 152 150 161 178 165 165 151 153 163 154 165 170 169 155 166 161 160 160 149 117 82 85 89 81 77 145 106 104
154 153 229 210 169 12 18 98 83 167 168 169 180 173 152 158 169 168 167 160 156 155 149 143 166 171 169 173 170 168 170 168 173 176 181 174 180 169 185 148 103 109 143 118 98 65 158 172 206
219 213 190 144 222 202 141 285 155 60 201 183 186 166 156 160 171 172 167 165 165 166 164 158 162 173 172 165 176 185 175 161 157 158 169 184 181 167 176 148 139 145 164 146 124 79 137 119 28
250 149 83 52 210 328 161 239 286 155 244 181 160 165 160 161 168 171 171 174 178 178 176 166 170 177 178 172 162 163 180 173 175 164 161 173 188 175 154 152 150 159 169 130 110 119 113 78 93
55 141 127 251 196 1 86 301 267 201 222 256 246 173 176 168 169 174 176 180 181 184 184 184 177 181 198 189 185 172 175 177 187 180 191 185 179 181 174 162 176 175 180 139 127 99 89 80 110
152 215 145 175 168 222 168 239 207 249 261 246 248 231 199 170 177 178 182 183 186 191 195 191 192 195 200 196 199 193 187 181 183 188 197 191 187 182 199 191 187 177 164 162 162 114 74 86 98
163 69 143 155 178 140 211 236 254 199 244 249 232 229 221 180 180 183 187 189 189 190 194 194 198 200 194 189 200 198 195 192 198 197 186 192 185 185 191 215 211 202 196 182 194 142 86 76 71
137 92 49 56 94 237 196 235 235 185 214 226 221 232 233 184 183 189 190 189 187 190 193 198 196 194 191 189 198 202 202 198 202 209 202 200 205 204 208 230 218 212 214 206 213 191 140 77 101
114 99 72 320 249 231 173 213 253 230 202 218 224 204 210 186 184 188 189 190 189 189 190 198 195 196 193 195 191 203 193 198 202 206 208 211 215 215 212 218 217 227 214 218 219 221 224 202 138
186 156 145 211 197 98 77 245 258 153 228 216 221 198 199 183 174 187 191 194 193 191 192 198 200 197 195 196 197 198 201 199 201 209 212 212 214 214 211 223 229 235 231 232 236 232 234 233 220
232 199 153 106 20 104 210 304 292 11 355 183 190 175 186 190 183 186 191 194 194 200 197 202 202 201 199 199 197 197 200 211 220 210 207 207 213 217 209 218 227 236 237 227 237 234 229 227 225
149 184 109 21 149 159 147 236 263 297 108 150 163 177 180 192 195 192 196 196 201 209 205 209 209 202 199 197 200 198 206 205 199 199 204 214 221 219 214 219 226 244 241 224 229 233 244 231 217
329 298 71 131 145 151 142 239 225 228 191 168 170 174 180 188 200 203 208 203 204 212 210 210 211 205 200 198 201 202 200 203 203 208 206 212 221 212 213 213 228 235 213 217 226 230 238 232 233
177 189 145 131 273 187 177 260 177 226 148 152 148 170 177 192 203 214 204 207 204 204 213 214 213 204 202 202 200 201 202 208 211 212 215 222 224 229 230 228 239 239 216 228 234 251 238 235 231